Time,TemperatureF,DewpointF,PressureIn,WindDirection,WindDirectionDegrees,WindSpeedMPH,WindSpeedGustMPH,Humidity,HourlyPrecipIn,Conditions,Clouds,dailyrainin,SolarRadiationWatts/m^2,SoftwareType,DateUTC
2013-05-26 00:01:00,35.0,33.4,29.80,WNW,288,13.8,13.8,94,0.04,,,0.96,0.0,WeatherDisplay:10.37,2013-05-26 04:01:00,
2013-05-26 00:06:00,35.1,33.5,29.81,WSW,244,9.2,9.2,94,0.04,RA,,0.97,0.0,WeatherDisplay:10.37,2013-05-26 04:06:00,
2013-05-26 00:11:00,35.1,33.5,29.81,NNW,330,12.7,12.7,94,0.04,RA,,0.97,0.0,WeatherDisplay:10.37,2013-05-26 04:11:00,
2013-05-26 00:16:00,35.2,33.6,29.80,WNW,292,11.5,11.5,94,0.03,,,0.97,0.0,WeatherDisplay:10.37,2013-05-26 04:16:00,
2013-05-26 00:21:00,35.2,33.6,29.80,SW,225,3.5,3.5,94,0.03,,,0.97,0.0,WeatherDisplay:10.37,2013-05-26 04:21:00,
2013-05-26 00:26:00,35.3,33.7,29.80,WSW,256,10.4,10.4,94,0.04,RA,,0.98,0.0,WeatherDisplay:10.37,2013-05-26 04:26:00,
2013-05-26 00:31:00,35.3,34.0,29.80,SE,132,11.5,11.5,95,0.04,RA,,0.98,0.0,WeatherDisplay:10.37,2013-05-26 04:31:00,
2013-05-26 00:36:00,35.3,33.7,29.80,West,271,4.0,4.0,94,0.03,,,0.98,0.0,WeatherDisplay:10.37,2013-05-26 04:36:00,
2013-05-26 00:41:00,35.3,33.7,29.80,North,9,11.5,11.5,94,0.03,,,0.98,0.0,WeatherDisplay:10.37,2013-05-26 04:41:00,
2013-05-26 00:46:00,35.4,33.8,29.80,West,277,8.1,8.1,94,0.03,,,0.98,0.0,WeatherDisplay:10.37,2013-05-26 04:46:00,
2013-05-26 00:51:00,35.5,33.9,29.80,NW,322,21.0,21.0,94,0.02,,,0.98,0.0,WeatherDisplay:10.37,2013-05-26 04:51:00,
2013-05-26 00:56:00,35.5,33.9,29.79,North,355,7.0,7.0,94,0.03,RA,,0.99,0.0,WeatherDisplay:10.37,2013-05-26 04:56:00,
2013-05-26 01:01:00,35.5,33.9,29.79,ESE,114,9.2,9.2,94,0.03,RA,,0.99,0.0,WeatherDisplay:10.37,2013-05-26 05:01:00,
2013-05-26 01:06:00,35.6,34.0,29.79,SSW,207,3.5,3.5,94,0.02,,,0.99,0.0,WeatherDisplay:10.37,2013-05-26 05:06:00,
2013-05-26 01:11:00,35.6,34.0,29.79,WSW,245,12.7,12.7,94,0.02,,,0.99,0.0,WeatherDisplay:10.37,2013-05-26 05:11:00,
2013-05-26 01:16:00,35.6,34.0,29.79,North,355,11.0,11.0,94,0.02,,,0.99,0.0,WeatherDisplay:10.37,2013-05-26 05:16:00,
2013-05-26 01:21:00,35.6,34.0,29.79,WSW,245,4.6,4.7,94,0.02,,,0.99,0.0,WeatherDisplay:10.37,2013-05-26 05:21:00,
2013-05-26 01:26:00,35.7,34.1,29.79,NW,315,12.7,12.7,94,0.02,RA,,1.00,0.0,WeatherDisplay:10.37,2013-05-26 05:26:00,
2013-05-26 01:31:00,35.7,34.1,29.79,WNW,298,13.0,13.0,94,0.02,RA,,1.00,0.0,WeatherDisplay:10.37,2013-05-26 05:31:00,
2013-05-26 01:36:00,35.7,34.1,29.79,SW,229,10.4,10.4,94,0.02,,,1.00,0.0,WeatherDisplay:10.37,2013-05-26 05:36:00,
2013-05-26 01:41:00,35.8,34.2,29.79,SW,230,6.9,6.9,94,0.02,,,1.00,0.0,WeatherDisplay:10.37,2013-05-26 05:41:00,
2013-05-26 01:46:00,35.8,34.2,29.79,NW,319,5.8,5.8,94,0.02,,,1.00,0.0,WeatherDisplay:10.37,2013-05-26 05:46:00,
2013-05-26 01:51:00,35.8,34.2,29.78,NNW,344,9.2,9.2,94,0.02,,,1.00,0.0,WeatherDisplay:10.37,2013-05-26 05:51:00,
2013-05-26 01:56:00,35.9,34.3,29.78,NNW,342,4.6,4.6,94,0.01,,,1.00,0.0,WeatherDisplay:10.37,2013-05-26 05:56:00,
2013-05-26 02:01:00,35.8,34.2,29.78,North,355,4.0,4.0,94,0.02,RA,,1.01,0.0,WeatherDisplay:10.37,2013-05-26 06:01:00,
2013-05-26 02:06:00,35.8,34.2,29.78,West,274,5.8,5.8,94,0.02,RA,,1.01,0.0,WeatherDisplay:10.37,2013-05-26 06:06:00,
2013-05-26 02:11:00,35.8,34.2,29.78,NNW,342,2.3,2.3,94,0.02,,,1.01,0.0,WeatherDisplay:10.37,2013-05-26 06:11:00,
2013-05-26 02:16:00,35.8,34.2,29.78,West,281,11.5,11.5,94,0.02,,,1.01,0.0,WeatherDisplay:10.37,2013-05-26 06:16:00,
2013-05-26 02:21:00,35.8,34.2,29.78,West,279,5.8,5.8,94,0.03,RA,,1.02,0.0,WeatherDisplay:10.37,2013-05-26 06:21:00,
2013-05-26 02:26:00,35.8,34.2,29.78,NNE,28,7.0,7.0,94,0.02,RA,,1.02,0.0,WeatherDisplay:10.37,2013-05-26 06:26:00,
2013-05-26 02:31:00,35.7,34.1,29.78,NNW,343,3.5,3.8,94,0.02,,,1.02,0.0,WeatherDisplay:10.37,2013-05-26 06:31:00,
2013-05-26 02:36:00,35.7,34.1,29.78,WNW,299,5.0,5.0,94,0.02,,,1.02,0.0,WeatherDisplay:10.37,2013-05-26 06:36:00,
2013-05-26 02:41:00,35.8,34.2,29.78,NNE,32,3.5,3.5,94,0.02,,,1.02,0.0,WeatherDisplay:10.37,2013-05-26 06:41:00,
2013-05-26 02:46:00,35.8,34.2,29.78,NNE,22,0.0,0.1,94,0.02,,,1.02,0.0,WeatherDisplay:10.37,2013-05-26 06:46:00,
2013-05-26 02:51:00,35.8,34.2,29.78,North,355,3.5,3.5,94,0.03,RA,,1.03,0.0,WeatherDisplay:10.37,2013-05-26 06:51:00,
2013-05-26 02:56:00,35.8,34.2,29.78,NW,309,4.6,4.6,94,0.03,RA,,1.03,0.0,WeatherDisplay:10.37,2013-05-26 06:56:00,
2013-05-26 03:01:00,35.8,34.2,29.77,NW,323,2.0,2.0,94,0.02,,,1.03,0.0,WeatherDisplay:10.37,2013-05-26 07:01:00,
2013-05-26 03:06:00,35.8,34.2,29.77,NNW,329,1.1,0.0,94,0.02,,,1.03,0.0,WeatherDisplay:10.37,2013-05-26 07:06:00,
2013-05-26 03:11:00,35.7,34.1,29.78,NNE,15,6.9,6.9,94,0.02,,,1.03,0.0,WeatherDisplay:10.37,2013-05-26 07:11:00,
2013-05-26 03:16:00,35.8,34.2,29.77,WNW,303,4.6,4.6,94,0.02,,,1.03,0.0,WeatherDisplay:10.37,2013-05-26 07:16:00,
2013-05-26 03:21:00,35.9,34.3,29.77,East,86,5.8,5.8,94,0.01,,,1.03,0.0,WeatherDisplay:10.37,2013-05-26 07:21:00,
2013-05-26 03:26:00,35.9,34.3,29.78,East,88,1.1,1.1,94,0.01,,,1.03,0.0,WeatherDisplay:10.37,2013-05-26 07:26:00,
2013-05-26 03:31:00,35.9,34.3,29.78,WSW,253,5.8,5.8,94,0.01,,,1.03,0.0,WeatherDisplay:10.37,2013-05-26 07:31:00,
2013-05-26 03:36:00,35.9,34.3,29.78,ENE,78,3.5,3.5,94,0.02,RA,,1.04,0.0,WeatherDisplay:10.37,2013-05-26 07:36:00,
2013-05-26 03:41:00,35.9,34.3,29.77,NW,311,6.9,6.9,94,0.02,RA,,1.04,0.0,WeatherDisplay:10.37,2013-05-26 07:41:00,
2013-05-26 03:46:00,35.9,34.3,29.77,NNE,30,3.5,3.5,94,0.02,,,1.04,0.0,WeatherDisplay:10.37,2013-05-26 07:46:00,
2013-05-26 03:51:00,35.9,34.3,29.77,NNE,26,3.5,3.5,94,0.01,,,1.04,0.0,WeatherDisplay:10.37,2013-05-26 07:51:00,
2013-05-26 03:56:00,36.0,34.4,29.78,West,275,5.8,5.8,94,0.01,,,1.04,0.0,WeatherDisplay:10.37,2013-05-26 07:56:00,
2013-05-26 04:01:00,36.0,34.4,29.78,North,5,5.0,5.0,94,0.01,,,1.04,0.0,WeatherDisplay:10.37,2013-05-26 08:01:00,
2013-05-26 04:06:00,36.0,34.4,29.78,WNW,284,2.3,0.0,94,0.01,,,1.04,0.0,WeatherDisplay:10.37,2013-05-26 08:06:00,
2013-05-26 04:11:00,36.0,34.4,29.78,NW,323,3.5,3.5,94,0.01,,,1.04,0.0,WeatherDisplay:10.37,2013-05-26 08:11:00,
2013-05-26 04:16:00,36.0,34.4,29.78,NNE,17,2.0,0.0,94,0.01,,,1.04,0.0,WeatherDisplay:10.37,2013-05-26 08:16:00,
2013-05-26 04:21:00,36.1,34.8,29.78,NNW,341,4.6,4.6,95,0.01,,,1.04,0.0,WeatherDisplay:10.37,2013-05-26 08:21:00,
2013-05-26 04:26:00,36.2,34.9,29.78,NNE,23,5.8,5.8,95,0.01,,,1.04,0.0,WeatherDisplay:10.37,2013-05-26 08:26:00,
2013-05-26 04:31:00,36.2,34.6,29.78,West,277,10.4,10.4,94,0.01,,,1.04,0.0,WeatherDisplay:10.37,2013-05-26 08:31:00,
2013-05-26 04:36:00,36.2,34.6,29.78,North,5,6.9,6.9,94,0.00,,,1.04,0.0,WeatherDisplay:10.37,2013-05-26 08:36:00,
2013-05-26 04:41:00,36.2,34.6,29.78,WSW,250,3.5,3.5,94,0.00,,,1.04,0.0,WeatherDisplay:10.37,2013-05-26 08:41:00,
2013-05-26 04:46:00,36.2,34.6,29.78,NNE,22,13.8,13.8,94,0.00,,,1.04,0.0,WeatherDisplay:10.37,2013-05-26 08:46:00,
2013-05-26 04:51:00,36.2,34.6,29.78,WNW,296,10.4,10.4,94,0.00,,,1.04,0.0,WeatherDisplay:10.37,2013-05-26 08:51:00,
2013-05-26 04:56:00,36.2,34.6,29.78,NNW,332,5.8,5.8,94,0.00,,,1.04,0.0,WeatherDisplay:10.37,2013-05-26 08:56:00,
2013-05-26 05:01:00,36.1,34.5,29.79,NW,312,7.0,7.0,94,0.00,,,1.04,0.0,WeatherDisplay:10.37,2013-05-26 09:01:00,
2013-05-26 05:06:00,36.2,34.6,29.78,NNE,28,11.5,11.5,94,0.00,,,1.04,0.0,WeatherDisplay:10.37,2013-05-26 09:06:00,
2013-05-26 05:11:00,36.2,34.6,29.79,North,360,6.9,6.9,94,0.00,,,1.04,0.0,WeatherDisplay:10.37,2013-05-26 09:11:00,
2013-05-26 05:16:00,36.3,34.7,29.79,NW,304,3.5,0.0,94,0.00,,,1.04,0.0,WeatherDisplay:10.37,2013-05-26 09:16:00,
2013-05-26 05:21:00,36.3,34.7,29.79,NW,325,4.6,4.6,94,0.00,,,1.04,0.0,WeatherDisplay:10.37,2013-05-26 09:21:00,
2013-05-26 05:26:00,36.4,34.8,29.79,NW,326,3.5,3.5,94,0.00,,,1.04,5.0,WeatherDisplay:10.37,2013-05-26 09:26:00,
2013-05-26 05:31:00,36.4,34.8,29.79,NNE,28,2.3,2.3,94,0.00,,,1.04,9.0,WeatherDisplay:10.37,2013-05-26 09:31:00,
2013-05-26 05:36:00,36.4,34.8,29.79,NNE,28,2.3,2.3,94,0.00,,,1.04,16.0,WeatherDisplay:10.37,2013-05-26 09:36:00,
2013-05-26 05:41:00,36.4,34.8,29.79,NW,323,6.9,6.9,94,0.00,,,1.04,21.0,WeatherDisplay:10.37,2013-05-26 09:41:00,
2013-05-26 05:46:00,36.5,36.5,29.79,NNW,333,3.5,3.5,100,0.00,,,1.04,21.0,WeatherDisplay:10.37,2013-05-26 09:46:00,
2013-05-26 05:51:00,36.5,34.9,29.79,NNE,29,11.5,11.5,94,0.00,,,1.04,25.0,WeatherDisplay:10.37,2013-05-26 09:51:00,
2013-05-26 05:56:00,36.5,35.2,29.79,WNW,288,4.6,4.6,95,0.00,,,1.04,25.0,WeatherDisplay:10.37,2013-05-26 09:56:00,
2013-05-26 06:01:00,36.6,35.3,29.79,NW,315,12.7,12.7,95,0.01,RA,,1.05,23.0,WeatherDisplay:10.37,2013-05-26 10:01:00,
2013-05-26 06:06:00,36.6,35.3,29.80,ENE,65,11.5,11.5,95,0.01,RA,,1.05,49.0,WeatherDisplay:10.37,2013-05-26 10:06:00,
2013-05-26 06:11:00,36.7,35.1,29.80,West,261,3.5,3.5,94,0.01,,,1.05,60.0,WeatherDisplay:10.37,2013-05-26 10:11:00,
2013-05-26 06:16:00,36.9,35.3,29.80,West,261,3.5,3.5,94,0.01,,,1.05,70.0,WeatherDisplay:10.37,2013-05-26 10:16:00,
2013-05-26 06:21:00,36.9,35.3,29.80,West,281,9.2,9.2,94,0.01,,,1.05,72.0,WeatherDisplay:10.37,2013-05-26 10:21:00,
2013-05-26 06:26:00,37.0,35.4,29.80,WNW,290,3.5,3.5,94,0.01,,,1.05,74.0,WeatherDisplay:10.37,2013-05-26 10:26:00,
2013-05-26 06:31:00,37.0,35.4,29.80,WNW,286,3.5,3.5,94,0.01,,,1.05,84.0,WeatherDisplay:10.37,2013-05-26 10:31:00,
2013-05-26 06:36:00,37.2,35.6,29.80,WNW,287,2.3,2.3,94,0.01,,,1.05,102.0,WeatherDisplay:10.37,2013-05-26 10:36:00,
2013-05-26 06:41:00,37.5,35.9,29.80,NNW,340,2.3,2.3,94,0.01,,,1.05,174.0,WeatherDisplay:10.37,2013-05-26 10:41:00,
2013-05-26 06:46:00,37.7,36.1,29.80,NNE,24,4.0,4.0,94,0.01,,,1.05,186.0,WeatherDisplay:10.37,2013-05-26 10:46:00,
2013-05-26 06:51:00,38.0,36.4,29.80,East,81,6.9,6.9,94,0.01,,,1.05,236.0,WeatherDisplay:10.37,2013-05-26 10:51:00,
2013-05-26 06:56:00,38.2,36.6,29.80,North,360,6.9,6.9,94,0.01,,,1.05,253.0,WeatherDisplay:10.37,2013-05-26 10:56:00,
2013-05-26 07:01:00,38.5,36.7,29.80,NE,42,3.5,3.5,93,0.00,RA,,0.00,156.0,WeatherDisplay:10.37,2013-05-26 11:01:00,
2013-05-26 07:06:00,38.6,36.5,29.80,North,5,5.0,5.0,92,0.00,RA,,0.00,139.0,WeatherDisplay:10.37,2013-05-26 11:06:00,
2013-05-26 07:11:00,38.6,36.5,29.80,ENE,67,3.5,3.5,92,0.00,OVC,,0.00,137.0,WeatherDisplay:10.37,2013-05-26 11:11:00,
2013-05-26 07:16:00,38.7,36.9,29.81,ENE,66,0.0,0.0,93,0.00,OVC,,0.00,178.0,WeatherDisplay:10.37,2013-05-26 11:16:00,
2013-05-26 07:21:00,38.8,36.9,29.80,ENE,65,3.5,3.5,93,0.00,OVC,,0.00,199.0,WeatherDisplay:10.37,2013-05-26 11:21:00,
2013-05-26 07:26:00,38.9,36.8,29.81,ENE,66,1.1,0.0,92,0.00,OVC,,0.00,132.0,WeatherDisplay:10.37,2013-05-26 11:26:00,
2013-05-26 07:31:00,39.0,37.1,29.81,ENE,65,0.0,0.0,93,0.00,OVC,,0.00,97.0,WeatherDisplay:10.37,2013-05-26 11:31:00,
2013-05-26 07:36:00,39.1,37.0,29.81,ENE,67,0.0,0.0,92,0.00,OVC,,0.00,104.0,WeatherDisplay:10.37,2013-05-26 11:36:00,
2013-05-26 07:41:00,39.0,36.6,29.81,NNW,330,4.0,4.0,91,0.00,OVC,,0.00,88.0,WeatherDisplay:10.37,2013-05-26 11:41:00,
2013-05-26 07:46:00,38.9,36.5,29.81,NNW,339,2.3,0.0,91,0.00,OVC,,0.00,178.0,WeatherDisplay:10.37,2013-05-26 11:46:00,
2013-05-26 07:51:00,38.9,36.2,29.81,NE,42,3.5,3.5,90,0.00,OVC,,0.00,162.0,WeatherDisplay:10.37,2013-05-26 11:51:00,
2013-05-26 07:56:00,39.1,36.7,29.81,NE,42,0.0,0.0,91,0.00,OVC,,0.00,174.0,WeatherDisplay:10.37,2013-05-26 11:56:00,
2013-05-26 08:01:00,39.2,37.1,29.81,North,9,5.0,5.0,92,0.00,OVC,,0.00,255.0,WeatherDisplay:10.37,2013-05-26 12:01:00,
2013-05-26 08:06:00,39.5,37.1,29.82,NE,51,5.8,5.8,91,0.00,OVC,,0.00,193.0,WeatherDisplay:10.37,2013-05-26 12:06:00,
2013-05-26 08:11:00,39.5,36.8,29.82,NE,37,5.8,5.8,90,0.00,OVC,,0.00,190.0,WeatherDisplay:10.37,2013-05-26 12:11:00,
2013-05-26 08:16:00,39.7,37.3,29.82,NE,44,4.6,4.6,91,0.00,OVC,,0.00,236.0,WeatherDisplay:10.37,2013-05-26 12:16:00,
2013-05-26 08:21:00,39.8,37.4,29.82,North,5,3.5,3.5,91,0.00,OVC,,0.00,339.0,WeatherDisplay:10.37,2013-05-26 12:21:00,
2013-05-26 08:26:00,40.0,37.6,29.82,ENE,74,3.5,3.5,91,0.00,OVC,,0.00,357.0,WeatherDisplay:10.37,2013-05-26 12:26:00,
2013-05-26 08:31:00,40.4,37.4,29.82,NE,37,3.5,3.5,89,0.00,OVC,,0.00,325.0,WeatherDisplay:10.37,2013-05-26 12:31:00,
2013-05-26 08:36:00,40.7,37.7,29.82,ENE,69,8.0,8.0,89,0.00,OVC,,0.00,251.0,WeatherDisplay:10.37,2013-05-26 12:36:00,
2013-05-26 08:41:00,40.9,37.9,29.82,ESE,123,2.3,2.3,89,0.00,OVC,,0.00,199.0,WeatherDisplay:10.37,2013-05-26 12:41:00,
2013-05-26 08:46:00,40.8,37.2,29.82,SSE,148,10.4,10.4,87,0.00,OVC,,0.00,202.0,WeatherDisplay:10.37,2013-05-26 12:46:00,
2013-05-26 08:51:00,40.7,37.4,29.82,East,80,4.6,4.7,88,0.00,OVC,,0.00,237.0,WeatherDisplay:10.37,2013-05-26 12:51:00,
2013-05-26 08:56:00,40.6,37.3,29.83,NE,53,5.8,5.8,88,0.00,OVC,,0.00,269.0,WeatherDisplay:10.37,2013-05-26 12:56:00,
2013-05-26 09:01:00,40.7,37.7,29.82,NE,42,5.8,5.8,89,0.00,OVC,,0.00,236.0,WeatherDisplay:10.37,2013-05-26 13:01:00,
2013-05-26 09:06:00,40.7,37.4,29.83,ENE,64,8.1,8.1,88,0.00,OVC,,0.00,225.0,WeatherDisplay:10.37,2013-05-26 13:06:00,
2013-05-26 09:11:00,40.7,37.7,29.83,ENE,63,9.2,9.2,89,0.00,OVC,,0.00,183.0,WeatherDisplay:10.37,2013-05-26 13:11:00,
2013-05-26 09:16:00,40.7,38.0,29.83,ESE,106,6.9,6.9,90,0.00,OVC,,0.00,169.0,WeatherDisplay:10.37,2013-05-26 13:16:00,
2013-05-26 09:21:00,40.3,36.7,29.83,East,89,3.5,3.5,87,0.00,OVC,,0.00,216.0,WeatherDisplay:10.37,2013-05-26 13:21:00,
2013-05-26 09:26:00,40.3,36.4,29.83,NNE,31,5.8,5.8,86,0.00,OVC,,0.00,283.0,WeatherDisplay:10.37,2013-05-26 13:26:00,
2013-05-26 09:31:00,40.4,36.5,29.83,NE,46,6.0,6.0,86,0.00,OVC,,0.00,287.0,WeatherDisplay:10.37,2013-05-26 13:31:00,
2013-05-26 09:36:00,40.8,37.5,29.83,ENE,77,1.1,1.1,88,0.00,OVC,,0.00,278.0,WeatherDisplay:10.37,2013-05-26 13:36:00,
2013-05-26 09:41:00,41.0,37.4,29.83,NE,37,3.5,3.5,87,0.00,OVC,,0.00,209.0,WeatherDisplay:10.37,2013-05-26 13:41:00,
2013-05-26 09:46:00,41.2,37.0,29.84,NE,37,0.0,0.0,85,0.00,OVC,,0.00,246.0,WeatherDisplay:10.37,2013-05-26 13:46:00,
2013-05-26 09:51:00,41.3,37.4,29.84,East,93,6.9,6.9,86,0.00,OVC,,0.00,251.0,WeatherDisplay:10.37,2013-05-26 13:51:00,
2013-05-26 09:56:00,41.2,36.7,29.84,East,90,3.5,3.5,84,0.00,OVC,,0.00,234.0,WeatherDisplay:10.37,2013-05-26 13:56:00,
2013-05-26 10:01:00,41.3,37.1,29.84,South,173,9.2,9.2,85,0.00,OVC,,0.00,220.0,WeatherDisplay:10.37,2013-05-26 14:01:00,
2013-05-26 10:06:00,41.3,37.4,29.84,SSW,204,2.3,2.3,86,0.00,OVC,,0.00,199.0,WeatherDisplay:10.37,2013-05-26 14:06:00,
2013-05-26 10:11:00,41.4,37.5,29.84,ENE,78,2.0,2.0,86,0.00,OVC,,0.00,162.0,WeatherDisplay:10.37,2013-05-26 14:11:00,
2013-05-26 10:16:00,41.2,37.0,29.84,NNW,340,10.0,10.0,85,0.00,OVC,,0.00,207.0,WeatherDisplay:10.37,2013-05-26 14:16:00,
2013-05-26 10:21:00,41.1,37.2,29.84,ENE,65,1.1,0.0,86,0.00,BKN,,0.00,227.0,WeatherDisplay:10.37,2013-05-26 14:21:00,
2013-05-26 10:26:00,41.3,38.0,29.84,WNW,286,6.0,6.0,88,0.00,FEW,,0.00,234.0,WeatherDisplay:10.37,2013-05-26 14:26:00,
2013-05-26 10:31:00,41.4,38.1,29.84,WNW,286,5.0,5.0,88,0.00,CLR,,0.00,253.0,WeatherDisplay:10.37,2013-05-26 14:31:00,
2013-05-26 10:36:00,41.4,37.8,29.84,WNW,293,10.0,10.0,87,0.00,CLR,,0.00,244.0,WeatherDisplay:10.37,2013-05-26 14:36:00,
2013-05-26 10:41:00,41.2,37.3,29.85,NW,307,3.5,3.5,86,0.00,CLR,,0.00,186.0,WeatherDisplay:10.37,2013-05-26 14:41:00,
2013-05-26 10:46:00,41.3,38.0,29.85,North,350,5.8,5.8,88,0.00,CLR,,0.00,185.0,WeatherDisplay:10.37,2013-05-26 14:46:00,
2013-05-26 10:51:00,41.4,38.4,29.85,WNW,299,0.0,0.0,89,0.00,CLR,,0.00,206.0,WeatherDisplay:10.37,2013-05-26 14:51:00,
2013-05-26 10:56:00,41.4,38.1,29.85,ENE,57,5.0,5.0,88,0.00,CLR,,0.00,264.0,WeatherDisplay:10.37,2013-05-26 14:56:00,
2013-05-26 11:01:00,41.3,38.0,29.85,ENE,60,3.5,3.5,88,0.00,CLR,,0.00,373.0,WeatherDisplay:10.37,2013-05-26 15:01:00,
2013-05-26 11:06:00,41.8,39.1,29.85,ENE,61,1.1,0.0,90,0.00,CLR,,0.00,383.0,WeatherDisplay:10.37,2013-05-26 15:06:00,
2013-05-26 11:11:00,42.4,40.2,29.85,NE,51,0.0,0.0,92,0.00,CLR,,0.00,355.0,WeatherDisplay:10.37,2013-05-26 15:11:00,
2013-05-26 11:16:00,42.6,40.2,29.85,SSE,166,5.8,5.8,91,0.00,CLR,,0.00,441.0,WeatherDisplay:10.37,2013-05-26 15:16:00,
2013-05-26 11:21:00,42.8,40.1,29.85,ENE,74,4.6,4.6,90,0.00,CLR,,0.00,332.0,WeatherDisplay:10.37,2013-05-26 15:21:00,
2013-05-26 11:26:00,42.7,39.7,29.86,NW,312,6.9,6.9,89,0.00,CLR,,0.00,313.0,WeatherDisplay:10.37,2013-05-26 15:26:00,
2013-05-26 11:31:00,42.7,39.4,29.86,NE,36,5.8,5.8,88,0.00,CLR,,0.00,418.0,WeatherDisplay:10.37,2013-05-26 15:31:00,
2013-05-26 11:36:00,42.7,38.5,29.86,East,92,9.2,9.2,85,0.00,CLR,,0.00,323.0,WeatherDisplay:10.37,2013-05-26 15:36:00,
2013-05-26 11:41:00,42.7,38.8,29.86,ENE,58,3.5,0.0,86,0.00,CLR,,0.00,320.0,WeatherDisplay:10.37,2013-05-26 15:41:00,
2013-05-26 11:46:00,42.7,38.8,29.87,North,355,5.8,5.8,86,0.00,CLR,,0.00,183.0,WeatherDisplay:10.37,2013-05-26 15:46:00,
2013-05-26 11:51:00,42.4,38.5,29.86,ENE,78,3.5,3.5,86,0.00,CLR,,0.00,211.0,WeatherDisplay:10.37,2013-05-26 15:51:00,
2013-05-26 11:56:00,42.3,38.4,29.87,ENE,78,3.5,0.0,86,0.00,CLR,,0.00,322.0,WeatherDisplay:10.37,2013-05-26 15:56:00,
2013-05-26 12:01:00,42.2,38.0,29.87,North,9,4.6,4.6,85,0.00,CLR,,0.00,360.0,WeatherDisplay:10.37,2013-05-26 16:01:00,
2013-05-26 12:06:00,42.2,38.6,29.88,WSW,255,3.5,3.5,87,0.00,CLR,,0.00,297.0,WeatherDisplay:10.37,2013-05-26 16:06:00,
2013-05-26 12:11:00,42.3,39.3,29.88,North,355,3.0,3.0,89,0.00,CLR,,0.00,327.0,WeatherDisplay:10.37,2013-05-26 16:11:00,
2013-05-26 12:16:00,42.3,38.1,29.88,ENE,57,1.1,0.0,85,0.00,CLR,,0.00,248.0,WeatherDisplay:10.37,2013-05-26 16:16:00,
2013-05-26 12:21:00,42.4,38.8,29.88,SE,142,3.5,3.5,87,0.00,CLR,,0.00,204.0,WeatherDisplay:10.37,2013-05-26 16:21:00,
2013-05-26 12:26:00,42.6,39.3,29.88,SE,143,3.5,3.5,88,0.00,CLR,,0.00,214.0,WeatherDisplay:10.37,2013-05-26 16:26:00,
2013-05-26 12:31:00,42.6,38.7,29.88,SE,142,0.0,0.0,86,0.00,CLR,,0.00,172.0,WeatherDisplay:10.37,2013-05-26 16:31:00,
2013-05-26 12:36:00,42.6,38.7,29.88,NE,46,0.0,0.0,86,0.00,CLR,,0.00,192.0,WeatherDisplay:10.37,2013-05-26 16:36:00,
2013-05-26 12:41:00,42.6,38.4,29.88,ENE,69,4.6,4.6,85,0.00,CLR,,0.00,237.0,WeatherDisplay:10.37,2013-05-26 16:41:00,
2013-05-26 12:46:00,42.6,37.8,29.88,NNE,30,6.9,6.9,83,0.00,CLR,,0.00,183.0,WeatherDisplay:10.37,2013-05-26 16:46:00,
2013-05-26 12:51:00,42.7,38.8,29.89,NE,37,1.1,1.1,86,0.00,CLR,,0.00,151.0,WeatherDisplay:10.37,2013-05-26 16:51:00,
2013-05-26 12:56:00,42.7,39.1,29.89,NW,306,1.1,0.0,87,0.00,CLR,,0.00,246.0,WeatherDisplay:10.37,2013-05-26 16:56:00,
2013-05-26 13:01:00,42.9,39.6,29.89,NNE,27,3.5,4.0,88,0.00,CLR,,0.00,338.0,WeatherDisplay:10.37,2013-05-26 17:01:00,
2013-05-26 13:06:00,43.1,40.1,29.89,NNE,22,2.3,2.3,89,0.00,CLR,,0.00,322.0,WeatherDisplay:10.37,2013-05-26 17:06:00,
2013-05-26 13:11:00,43.3,40.3,29.89,WNW,282,3.5,3.5,89,0.00,CLR,,0.00,306.0,WeatherDisplay:10.37,2013-05-26 17:11:00,
2013-05-26 13:16:00,43.4,40.1,29.89,West,271,3.5,3.5,88,0.00,CLR,,0.00,229.0,WeatherDisplay:10.37,2013-05-26 17:16:00,
2013-05-26 13:21:00,43.3,39.1,29.89,NE,49,10.4,10.4,85,0.00,CLR,,0.00,251.0,WeatherDisplay:10.37,2013-05-26 17:21:00,
2013-05-26 13:26:00,43.3,39.7,29.89,NNE,28,5.8,5.8,87,0.00,CLR,,0.00,352.0,WeatherDisplay:10.37,2013-05-26 17:26:00,
2013-05-26 13:31:00,43.2,39.0,29.89,West,281,6.9,6.9,85,0.00,CLR,,0.00,345.0,WeatherDisplay:10.37,2013-05-26 17:31:00,
2013-05-26 13:36:00,43.3,39.4,29.89,North,5,10.4,10.4,86,0.00,CLR,,0.00,320.0,WeatherDisplay:10.37,2013-05-26 17:36:00,
2013-05-26 13:41:00,43.6,39.7,29.90,North,10,2.3,2.3,86,0.00,CLR,,0.00,322.0,WeatherDisplay:10.37,2013-05-26 17:41:00,
2013-05-26 13:46:00,43.8,39.9,29.89,NE,34,3.5,3.5,86,0.00,CLR,,0.00,269.0,WeatherDisplay:10.37,2013-05-26 17:46:00,
2013-05-26 13:51:00,44.0,39.8,29.90,SSE,152,3.5,3.5,85,0.00,CLR,,0.00,308.0,WeatherDisplay:10.37,2013-05-26 17:51:00,
2013-05-26 13:56:00,44.1,39.9,29.90,SSE,165,3.0,3.0,85,0.00,CLR,,0.00,425.0,WeatherDisplay:10.37,2013-05-26 17:56:00,
2013-05-26 14:01:00,44.3,40.4,29.90,ESE,103,3.5,3.5,86,0.00,CLR,,0.00,404.0,WeatherDisplay:10.37,2013-05-26 18:01:00,
2013-05-26 14:06:00,44.7,39.9,29.90,SW,232,5.8,5.8,83,0.00,CLR,,0.00,568.0,WeatherDisplay:10.37,2013-05-26 18:06:00,
2013-05-26 14:11:00,45.2,40.7,29.90,WSW,254,8.0,8.0,84,0.00,CLR,,0.00,429.0,WeatherDisplay:10.37,2013-05-26 18:11:00,
2013-05-26 14:16:00,45.5,40.9,29.90,NW,315,4.6,4.6,84,0.00,CLR,,0.00,633.0,WeatherDisplay:10.37,2013-05-26 18:16:00,
2013-05-26 14:21:00,45.5,40.9,29.90,NNE,19,11.5,11.5,84,0.00,CLR,,0.00,652.0,WeatherDisplay:10.37,2013-05-26 18:21:00,
2013-05-26 14:26:00,45.9,40.7,29.91,NE,42,6.9,6.9,82,0.00,CLR,,0.00,1164.0,WeatherDisplay:10.37,2013-05-26 18:26:00,
2013-05-26 14:31:00,46.5,40.7,29.90,North,355,12.7,12.7,80,0.00,CLR,,0.00,446.0,WeatherDisplay:10.37,2013-05-26 18:31:00,
2013-05-26 14:36:00,46.8,40.6,29.90,West,263,11.5,11.5,79,0.00,CLR,,0.00,446.0,WeatherDisplay:10.37,2013-05-26 18:36:00,
2013-05-26 14:41:00,46.8,41.0,29.91,NE,49,10.4,10.4,80,0.00,CLR,,0.00,478.0,WeatherDisplay:10.37,2013-05-26 18:41:00,
2013-05-26 14:46:00,47.1,40.9,29.91,NW,310,9.2,9.2,79,0.00,CLR,,0.00,485.0,WeatherDisplay:10.37,2013-05-26 18:46:00,
2013-05-26 14:51:00,46.7,40.2,29.91,West,265,5.0,5.0,78,0.00,CLR,,0.00,360.0,WeatherDisplay:10.37,2013-05-26 18:51:00,
2013-05-26 14:56:00,46.4,40.6,29.91,West,276,3.5,3.5,80,0.00,CLR,,0.00,510.0,WeatherDisplay:10.37,2013-05-26 18:56:00,
2013-05-26 15:01:00,46.4,41.2,29.91,NW,323,6.9,6.9,82,0.00,CLR,,0.00,278.0,WeatherDisplay:10.37,2013-05-26 19:01:00,
2013-05-26 15:06:00,45.9,40.7,29.92,North,9,5.0,5.0,82,0.00,CLR,,0.00,225.0,WeatherDisplay:10.37,2013-05-26 19:06:00,
2013-05-26 15:11:00,45.4,39.9,29.92,NNE,26,3.5,3.5,81,0.00,CLR,,0.00,206.0,WeatherDisplay:10.37,2013-05-26 19:11:00,
2013-05-26 15:16:00,45.1,39.9,29.92,East,80,8.1,8.1,82,0.00,CLR,,0.00,248.0,WeatherDisplay:10.37,2013-05-26 19:16:00,
2013-05-26 15:21:00,44.9,40.0,29.92,ESE,109,3.5,3.5,83,0.00,CLR,,0.00,216.0,WeatherDisplay:10.37,2013-05-26 19:21:00,
2013-05-26 15:26:00,44.8,40.3,29.92,NNE,24,3.5,3.5,84,0.00,CLR,,0.00,246.0,WeatherDisplay:10.37,2013-05-26 19:26:00,
2013-05-26 15:31:00,44.7,39.5,29.92,WSW,250,6.9,6.9,82,0.00,CLR,,0.00,257.0,WeatherDisplay:10.37,2013-05-26 19:31:00,
2013-05-26 15:36:00,44.7,39.2,29.92,NW,317,11.5,11.5,81,0.00,CLR,,0.00,302.0,WeatherDisplay:10.37,2013-05-26 19:36:00,
2013-05-26 15:41:00,45.0,39.8,29.93,NNW,334,6.9,6.9,82,0.00,CLR,,0.00,364.0,WeatherDisplay:10.37,2013-05-26 19:41:00,
2013-05-26 15:46:00,45.0,40.1,29.93,WNW,300,9.2,9.2,83,0.00,CLR,,0.00,325.0,WeatherDisplay:10.37,2013-05-26 19:46:00,
2013-05-26 15:51:00,45.0,40.5,29.93,NNW,334,9.0,9.0,84,0.00,CLR,,0.00,359.0,WeatherDisplay:10.37,2013-05-26 19:51:00,
2013-05-26 15:56:00,45.1,40.2,29.93,WNW,292,4.0,4.0,83,0.00,CLR,,0.00,350.0,WeatherDisplay:10.37,2013-05-26 19:56:00,
2013-05-26 16:01:00,45.3,40.7,29.94,North,360,8.1,8.1,84,0.00,CLR,,0.00,323.0,WeatherDisplay:10.37,2013-05-26 20:01:00,
2013-05-26 16:06:00,45.4,39.9,29.94,WNW,284,10.4,10.4,81,0.00,CLR,,0.00,330.0,WeatherDisplay:10.37,2013-05-26 20:06:00,
2013-05-26 16:11:00,45.4,39.6,29.94,WNW,295,12.7,12.7,80,0.00,CLR,,0.00,302.0,WeatherDisplay:10.37,2013-05-26 20:11:00,
2013-05-26 16:16:00,45.5,39.7,29.95,NW,311,16.1,16.1,80,0.00,CLR,,0.00,301.0,WeatherDisplay:10.37,2013-05-26 20:16:00,
2013-05-26 16:21:00,45.4,38.9,29.95,North,350,8.0,8.0,78,0.00,CLR,,0.00,218.0,WeatherDisplay:10.37,2013-05-26 20:21:00,
2013-05-26 16:26:00,45.5,40.0,29.96,NW,323,6.0,6.0,81,0.00,CLR,,0.00,241.0,WeatherDisplay:10.37,2013-05-26 20:26:00,
2013-05-26 16:31:00,45.6,39.5,29.96,ESE,115,10.4,10.4,79,0.00,CLR,,0.00,213.0,WeatherDisplay:10.37,2013-05-26 20:31:00,
2013-05-26 16:36:00,45.6,39.5,29.96,NE,41,9.2,9.2,79,0.00,CLR,,0.00,278.0,WeatherDisplay:10.37,2013-05-26 20:36:00,
2013-05-26 16:41:00,45.6,38.8,29.96,NNW,348,10.4,10.4,77,0.00,CLR,,0.00,255.0,WeatherDisplay:10.37,2013-05-26 20:41:00,
2013-05-26 16:46:00,45.8,39.7,29.96,NW,313,5.8,5.8,79,0.00,CLR,,0.00,295.0,WeatherDisplay:10.37,2013-05-26 20:46:00,
2013-05-26 16:51:00,45.8,40.0,29.97,WNW,295,11.5,11.5,80,0.00,CLR,,0.00,239.0,WeatherDisplay:10.37,2013-05-26 20:51:00,
2013-05-26 16:56:00,45.6,40.4,29.97,NNW,348,12.7,12.7,82,0.00,CLR,,0.00,304.0,WeatherDisplay:10.37,2013-05-26 20:56:00,
2013-05-26 17:01:00,45.4,40.5,29.97,NNE,26,6.9,6.9,83,0.00,CLR,,0.00,325.0,WeatherDisplay:10.37,2013-05-26 21:01:00,
2013-05-26 17:06:00,45.2,39.7,29.97,WNW,296,10.4,10.4,81,0.01,RA,,0.01,290.0,WeatherDisplay:10.37,2013-05-26 21:06:00,
2013-05-26 17:11:00,45.2,40.3,29.97,NE,45,4.6,4.6,83,0.01,RA,,0.01,332.0,WeatherDisplay:10.37,2013-05-26 21:11:00,
2013-05-26 17:16:00,45.3,40.1,29.98,NE,40,4.0,4.0,82,0.01,CLR,,0.01,322.0,WeatherDisplay:10.37,2013-05-26 21:16:00,
2013-05-26 17:21:00,45.3,40.1,29.98,SW,234,4.6,4.6,82,0.01,CLR,,0.01,329.0,WeatherDisplay:10.37,2013-05-26 21:21:00,
2013-05-26 17:26:00,45.4,40.2,29.98,NE,56,3.5,3.5,82,0.01,CLR,,0.01,329.0,WeatherDisplay:10.37,2013-05-26 21:26:00,
2013-05-26 17:31:00,45.5,41.3,29.99,ENE,76,2.3,2.3,85,0.01,CLR,,0.01,285.0,WeatherDisplay:10.37,2013-05-26 21:31:00,
2013-05-26 17:36:00,45.6,41.4,29.99,North,360,8.0,8.0,85,0.01,CLR,,0.01,315.0,WeatherDisplay:10.37,2013-05-26 21:36:00,
2013-05-26 17:41:00,45.4,40.5,29.99,NNE,22,5.0,5.0,83,0.01,CLR,,0.01,218.0,WeatherDisplay:10.37,2013-05-26 21:41:00,
2013-05-26 17:46:00,45.1,40.9,29.99,NNE,24,4.6,4.6,85,0.01,CLR,,0.01,221.0,WeatherDisplay:10.37,2013-05-26 21:46:00,
2013-05-26 17:51:00,44.7,40.5,29.99,ENE,75,3.5,3.5,85,0.01,CLR,,0.01,232.0,WeatherDisplay:10.37,2013-05-26 21:51:00,
2013-05-26 17:56:00,44.5,40.6,30.00,North,9,4.0,4.0,86,0.01,CLR,,0.01,213.0,WeatherDisplay:10.37,2013-05-26 21:56:00,
2013-05-26 18:01:00,44.2,39.7,30.00,SE,128,2.3,2.3,84,0.01,CLR,,0.01,204.0,WeatherDisplay:10.37,2013-05-26 22:01:00,
2013-05-26 18:06:00,44.2,40.6,30.00,North,351,5.0,5.0,87,0.00,CLR,,0.01,225.0,WeatherDisplay:10.37,2013-05-26 22:06:00,
2013-05-26 18:11:00,44.3,40.7,29.99,WSW,248,3.5,3.5,87,0.00,CLR,,0.01,185.0,WeatherDisplay:10.37,2013-05-26 22:11:00,
2013-05-26 18:16:00,44.2,40.3,30.00,ENE,63,4.6,4.6,86,0.00,CLR,,0.01,151.0,WeatherDisplay:10.37,2013-05-26 22:16:00,
2013-05-26 18:21:00,44.1,39.9,30.00,North,360,11.0,11.0,85,0.00,CLR,,0.01,146.0,WeatherDisplay:10.37,2013-05-26 22:21:00,
2013-05-26 18:26:00,44.0,39.5,30.00,NW,319,19.0,19.0,84,0.00,CLR,,0.01,155.0,WeatherDisplay:10.37,2013-05-26 22:26:00,
2013-05-26 18:31:00,43.9,39.1,30.00,West,269,6.9,6.9,83,0.00,CLR,,0.01,135.0,WeatherDisplay:10.37,2013-05-26 22:31:00,
2013-05-26 18:36:00,43.9,39.1,30.00,WNW,296,6.9,6.9,83,0.00,CLR,,0.01,137.0,WeatherDisplay:10.37,2013-05-26 22:36:00,
2013-05-26 18:41:00,43.9,38.1,30.01,NNW,344,11.5,11.5,80,0.00,CLR,,0.01,98.0,WeatherDisplay:10.37,2013-05-26 22:41:00,
2013-05-26 18:46:00,44.0,37.9,30.01,NNW,334,11.5,11.5,79,0.00,CLR,,0.01,77.0,WeatherDisplay:10.37,2013-05-26 22:46:00,
2013-05-26 18:51:00,44.2,37.8,30.01,NW,318,5.8,5.8,78,0.00,CLR,,0.01,74.0,WeatherDisplay:10.37,2013-05-26 22:51:00,
2013-05-26 18:56:00,44.3,37.9,30.00,NW,314,4.6,4.6,78,0.00,CLR,,0.01,67.0,WeatherDisplay:10.37,2013-05-26 22:56:00,
2013-05-26 19:01:00,44.3,37.9,30.01,North,350,5.8,5.8,78,0.00,FEW,,0.01,67.0,WeatherDisplay:10.37,2013-05-26 23:01:00,
2013-05-26 19:06:00,44.3,37.5,30.01,West,265,5.8,5.8,77,0.00,FEW,,0.01,67.0,WeatherDisplay:10.37,2013-05-26 23:06:00,
2013-05-26 19:11:00,44.2,37.4,30.01,NNW,342,13.8,13.8,77,0.00,FEW,,0.01,53.0,WeatherDisplay:10.37,2013-05-26 23:11:00,
2013-05-26 19:16:00,44.2,37.1,30.01,North,360,9.2,9.2,76,0.00,SCT,,0.01,49.0,WeatherDisplay:10.37,2013-05-26 23:16:00,
2013-05-26 19:21:00,44.1,37.3,30.01,WNW,296,6.9,6.9,77,0.00,SCT,,0.01,51.0,WeatherDisplay:10.37,2013-05-26 23:21:00,
2013-05-26 19:26:00,44.0,37.3,30.02,NNE,29,12.0,12.0,77,0.00,SCT,,0.01,53.0,WeatherDisplay:10.37,2013-05-26 23:26:00,
2013-05-26 19:31:00,44.1,37.7,30.02,SSE,163,10.4,10.4,78,0.00,SCT,,0.01,46.0,WeatherDisplay:10.37,2013-05-26 23:31:00,
2013-05-26 19:36:00,44.0,37.6,30.01,North,355,10.4,10.4,78,0.00,BKN,,0.01,32.0,WeatherDisplay:10.37,2013-05-26 23:36:00,
2013-05-26 19:41:00,43.9,37.8,30.02,WNW,299,12.7,12.7,79,0.00,BKN,,0.01,21.0,WeatherDisplay:10.37,2013-05-26 23:41:00,
2013-05-26 19:46:00,43.8,37.7,30.02,WNW,299,11.5,11.5,79,0.00,BKN,,0.01,21.0,WeatherDisplay:10.37,2013-05-26 23:46:00,
2013-05-26 19:51:00,43.6,37.8,30.02,NW,314,6.9,6.9,80,0.00,BKN,,0.01,19.0,WeatherDisplay:10.37,2013-05-26 23:51:00,
2013-05-26 19:56:00,43.5,38.1,30.02,West,269,3.5,3.5,81,0.00,BKN,,0.01,16.0,WeatherDisplay:10.37,2013-05-26 23:56:00,
2013-05-26 20:01:00,43.3,37.9,30.02,NNW,348,5.8,5.8,81,0.00,BKN,,0.01,16.0,WeatherDisplay:10.37,2013-05-27 00:01:00,
2013-05-26 20:06:00,43.2,37.8,30.02,North,9,3.5,3.5,81,0.00,BKN,,0.01,14.0,WeatherDisplay:10.37,2013-05-27 00:06:00,
2013-05-26 20:11:00,43.0,37.6,30.02,WNW,302,6.9,6.9,81,0.00,BKN,,0.01,9.0,WeatherDisplay:10.37,2013-05-27 00:11:00,
2013-05-26 20:16:00,42.9,37.2,30.02,NW,318,4.6,4.6,80,0.00,BKN,,0.01,7.0,WeatherDisplay:10.37,2013-05-27 00:16:00,
2013-05-26 20:21:00,42.7,37.0,30.02,NW,313,9.0,9.0,80,0.00,CLR,,0.01,0.0,WeatherDisplay:10.37,2013-05-27 00:21:00,
2013-05-26 20:26:00,42.7,37.3,30.02,WNW,297,9.2,9.2,81,0.00,CLR,,0.01,0.0,WeatherDisplay:10.37,2013-05-27 00:26:00,
2013-05-26 20:31:00,42.5,37.1,30.02,NW,319,5.8,5.8,81,0.00,CLR,,0.01,0.0,WeatherDisplay:10.37,2013-05-27 00:31:00,
2013-05-26 20:36:00,42.3,37.2,30.02,NNW,333,3.5,3.5,82,0.00,CLR,,0.01,0.0,WeatherDisplay:10.37,2013-05-27 00:36:00,
2013-05-26 20:41:00,42.0,37.2,30.02,WNW,290,8.1,8.1,83,0.00,,,0.01,0.0,WeatherDisplay:10.37,2013-05-27 00:41:00,
2013-05-26 20:46:00,41.7,36.9,30.02,North,355,10.0,10.0,83,0.00,,,0.01,0.0,WeatherDisplay:10.37,2013-05-27 00:46:00,
2013-05-26 20:51:00,41.6,36.8,30.03,NW,307,6.9,6.9,83,0.00,,,0.01,0.0,WeatherDisplay:10.37,2013-05-27 00:51:00,
2013-05-26 20:56:00,41.6,36.2,30.03,West,276,6.9,6.9,81,0.00,,,0.01,0.0,WeatherDisplay:10.37,2013-05-27 00:56:00,
2013-05-26 21:01:00,41.6,36.2,30.03,WNW,299,5.8,5.8,81,0.00,,,0.01,0.0,WeatherDisplay:10.37,2013-05-27 01:01:00,
2013-05-26 21:06:00,41.5,36.4,30.03,WNW,299,3.5,3.5,82,0.00,,,0.01,0.0,WeatherDisplay:10.37,2013-05-27 01:06:00,
2013-05-26 21:11:00,41.2,36.1,30.03,WNW,299,1.0,1.0,82,0.00,,,0.01,0.0,WeatherDisplay:10.37,2013-05-27 01:11:00,
2013-05-26 21:16:00,40.8,36.0,30.03,WNW,299,2.3,2.3,83,0.00,,,0.01,0.0,WeatherDisplay:10.37,2013-05-27 01:16:00,
2013-05-26 21:21:00,40.4,36.2,30.03,WNW,299,0.0,0.0,85,0.00,,,0.01,0.0,WeatherDisplay:10.37,2013-05-27 01:21:00,
2013-05-26 21:26:00,40.0,36.2,30.03,WNW,299,2.3,2.3,86,0.00,,,0.01,0.0,WeatherDisplay:10.37,2013-05-27 01:26:00,
2013-05-26 21:31:00,39.6,36.0,30.03,WNW,299,0.0,0.0,87,0.00,,,0.01,0.0,WeatherDisplay:10.37,2013-05-27 01:31:00,
2013-05-26 21:36:00,39.3,36.0,30.03,WNW,299,0.0,0.0,88,0.00,,,0.01,0.0,WeatherDisplay:10.37,2013-05-27 01:36:00,
2013-05-26 21:41:00,39.1,35.8,30.03,WNW,299,0.0,0.0,88,0.00,,,0.01,0.0,WeatherDisplay:10.37,2013-05-27 01:41:00,
2013-05-26 21:46:00,39.1,35.6,30.03,WNW,302,3.5,3.5,87,0.00,,,0.01,0.0,WeatherDisplay:10.37,2013-05-27 01:46:00,
2013-05-26 21:51:00,39.3,35.8,30.03,WNW,302,0.0,0.0,87,0.00,,,0.01,0.0,WeatherDisplay:10.37,2013-05-27 01:51:00,
2013-05-26 21:56:00,39.4,35.9,30.03,WNW,302,0.0,0.0,87,0.00,,,0.01,0.0,WeatherDisplay:10.37,2013-05-27 01:56:00,
2013-05-26 22:01:00,39.5,36.0,30.03,WNW,302,2.3,2.3,87,0.00,,,0.01,0.0,WeatherDisplay:10.37,2013-05-27 02:01:00,
2013-05-26 22:06:00,39.6,36.3,30.03,WNW,302,0.0,0.0,88,0.00,,,0.01,0.0,WeatherDisplay:10.37,2013-05-27 02:06:00,
2013-05-26 22:11:00,39.5,36.2,30.03,WNW,302,2.0,2.0,88,0.00,,,0.01,0.0,WeatherDisplay:10.37,2013-05-27 02:11:00,
2013-05-26 22:16:00,39.5,36.8,30.03,WNW,302,0.0,0.0,90,0.00,,,0.01,0.0,WeatherDisplay:10.37,2013-05-27 02:16:00,
2013-05-26 22:21:00,39.5,36.5,30.04,WNW,302,0.0,0.0,89,0.00,,,0.01,0.0,WeatherDisplay:10.37,2013-05-27 02:21:00,
2013-05-26 22:26:00,39.5,36.5,30.04,WNW,302,0.0,0.0,89,0.00,,,0.01,0.0,WeatherDisplay:10.37,2013-05-27 02:26:00,
2013-05-26 22:31:00,39.6,36.6,30.04,WNW,302,0.0,0.0,89,0.00,,,0.01,0.0,WeatherDisplay:10.37,2013-05-27 02:31:00,
2013-05-26 22:36:00,39.6,36.9,30.04,WNW,302,0.0,0.0,90,0.00,,,0.01,0.0,WeatherDisplay:10.37,2013-05-27 02:36:00,
2013-05-26 22:41:00,39.5,36.5,30.04,WNW,302,0.0,0.0,89,0.00,,,0.01,0.0,WeatherDisplay:10.37,2013-05-27 02:41:00,
2013-05-26 22:46:00,39.3,36.3,30.04,WNW,302,0.0,0.0,89,0.00,,,0.01,0.0,WeatherDisplay:10.37,2013-05-27 02:46:00,
2013-05-26 22:51:00,39.2,35.9,30.04,WNW,302,0.0,0.0,88,0.00,,,0.01,0.0,WeatherDisplay:10.37,2013-05-27 02:51:00,
2013-05-26 22:56:00,39.2,36.2,30.04,WNW,302,1.0,1.0,89,0.00,,,0.01,0.0,WeatherDisplay:10.37,2013-05-27 02:56:00,
2013-05-26 23:01:00,39.2,36.2,30.03,WNW,302,0.0,0.0,89,0.00,,,0.01,0.0,WeatherDisplay:10.37,2013-05-27 03:01:00,
2013-05-26 23:06:00,39.0,36.3,30.04,WNW,302,2.3,2.3,90,0.00,,,0.01,0.0,WeatherDisplay:10.37,2013-05-27 03:06:00,
2013-05-26 23:11:00,38.9,35.9,30.04,WNW,302,0.0,0.0,89,0.00,,,0.01,0.0,WeatherDisplay:10.37,2013-05-27 03:11:00,
2013-05-26 23:16:00,38.9,36.2,30.04,WNW,302,2.0,2.0,90,0.00,,,0.01,0.0,WeatherDisplay:10.37,2013-05-27 03:16:00,
2013-05-26 23:21:00,38.9,36.2,30.04,WNW,302,0.0,0.0,90,0.00,,,0.01,0.0,WeatherDisplay:10.37,2013-05-27 03:21:00,
2013-05-26 23:26:00,38.7,36.0,30.03,WNW,302,0.0,0.0,90,0.00,,,0.01,0.0,WeatherDisplay:10.37,2013-05-27 03:26:00,
2013-05-26 23:31:00,38.3,35.6,30.03,WNW,302,0.0,0.0,90,0.00,,,0.01,0.0,WeatherDisplay:10.37,2013-05-27 03:31:00,
2013-05-26 23:36:00,37.9,35.2,30.03,WNW,302,0.0,0.0,90,0.00,,,0.01,0.0,WeatherDisplay:10.37,2013-05-27 03:36:00,
2013-05-26 23:41:00,37.6,34.9,30.04,WNW,302,0.0,0.0,90,0.00,,,0.01,0.0,WeatherDisplay:10.37,2013-05-27 03:41:00,
2013-05-26 23:46:00,37.3,34.6,30.03,WNW,302,0.0,0.0,90,0.00,,,0.01,0.0,WeatherDisplay:10.37,2013-05-27 03:46:00,
2013-05-26 23:51:00,37.2,34.8,30.03,WNW,302,0.0,0.0,91,0.00,,,0.01,0.0,WeatherDisplay:10.37,2013-05-27 03:51:00,
2013-05-26 23:56:00,37.0,34.6,30.03,WNW,302,0.0,0.0,91,0.00,,,0.01,0.0,WeatherDisplay:10.37,2013-05-27 03:56:00,